This demonstration page uses our WeatherBlox Daily Observations layout. Learn more.

Left ArrowRight Arrow

39.51506, -84.39828

Hourly Observations for June 28, 2017

Temp ( °F °C ) Dew Point ( °F °C ) Humidity (%) Winds ( mph kmh ) Pressure ( in mb ) Visibility ( mi km ) Precip ( " mm )
12:15 am 00:15 Clear 55 12.5 48 9.1 80 80 N N/A 30.15 1021 10 16 N/A
12:35 am 00:35 Clear 55 12.5 48 9.1 80 80 N N/A 30.15 1021 10 16 N/A
12:55 am 00:55 Clear 55 12.5 48 9.1 80 80 N N/A 30.15 1021 10 16 N/A
1:15 am 01:15 Clear 55 12.5 49 9.2 80 80 N N/A 30.15 1021 10 16 N/A
1:35 am 01:35 Clear 55 12.5 48 9.1 80 80 N N/A 30.15 1021 10 16 N/A
1:55 am 01:55 Clear 55 12.5 49 9.3 81 81 N N/A 30.15 1021 10 16 N/A
2:15 am 02:15 Clear 55 12.5 49 9.5 82 82 N N/A 30.15 1021 10 16 N/A
2:35 am 02:35 Clear 55 12.5 49 9.5 82 82 N N/A 30.15 1021 10 16 N/A
2:55 am 02:55 Clear 55 12.5 49 9.5 82 82 N N/A 30.15 1021 10 16 N/A
3:15 am 03:15 Clear 55 12.5 49 9.5 82 82 N N/A 30.15 1021 10 16 N/A
3:35 am 03:35 Clear 55 12.5 49 9.5 82 82 N N/A 30.15 1021 10 16 N/A
3:55 am 03:55 Clear 55 12.5 49 9.5 82 82 N N/A 30.15 1021 10 16 N/A
4:15 am 04:15 Clear 52 11 47 8.2 83 83 N N/A 30.15 1021 10 16 N/A
4:35 am 04:35 Clear 53 11.4 47 8.6 83 83 N N/A 30.15 1021 10 16 N/A
4:55 am 04:55 Clear 52 11 47 8.3 84 84 N N/A 30.15 1021 10 16 N/A
5:15 am 05:15 Clear 52 11 47 8.3 84 84 N N/A 30.15 1021 10 16 N/A
5:35 am 05:35 Clear 52 11 47 8.5 85 85 N N/A 30.15 1021 10 16 N/A
5:55 am 05:55 Clear 51 10.7 47 8.2 85 85 N N/A 30.15 1021 10 16 N/A
6:15 am 06:15 Sunny 52 11.1 47 8.6 85 85 N N/A 30.15 1021 10 16 N/A
6:35 am 06:35 Sunny 52 11 47 8.5 85 85 N N/A 30.15 1021 10 16 N/A
6:55 am 06:55 Sunny 52 11 47 8.5 85 85 N N/A 30.18 1022 10 16 N/A
7:15 am 07:15 Sunny 55 12.5 50 10 85 85 N N/A 30.15 1021 10 16 N/A
7:35 am 07:35 Sunny 55 12.5 50 10 85 85 N N/A 30.18 1022 10 16 N/A
7:55 am 07:55 Sunny 57 13.8 52 11.3 85 85 N N/A 30.18 1022 10 16 N/A
8:15 am 08:15 Sunny 58 14.2 52 11 81 81 N N/A 30.18 1022 10 16 N/A
8:35 am 08:35 undefined N/A N/A N/A undefined N/A N/A N/A N/A
8:55 am 08:55 undefined N/A N/A N/A undefined N/A N/A N/A N/A
9:15 am 09:15 undefined N/A N/A N/A undefined N/A N/A N/A N/A
9:35 am 09:35 Sunny 69 20.8 55 12.9 61 61 S 5 7 30.15 1021 10 16 N/A
9:55 am 09:55 Sunny N/A N/A N/A undefined N/A N/A 10 16 N/A
10:15 am 10:15 Sunny 74 23.6 56 13.1 52 52 SSW 12 19 30.15 1021 10 16 N/A
10:35 am 10:35 Sunny 74 23.6 53 11.6 47 47 SSW 8 13 30.15 1021 10 16 N/A
10:55 am 10:55 Sunny 74 23.6 49 9.4 41 41 S 13 20 30.15 1021 10 16 N/A
11:15 am 11:15 Sunny 76 24.7 48 9.1 37 37 SSW 13 20 30.15 1021 10 16 N/A
11:35 am 11:35 Sunny 76 24.4 47 8.5 36 36 S 9 15 30.15 1021 10 16 N/A
11:55 am 11:55 Sunny 77 25.1 47 8.3 34 34 S 9 15 30.15 1021 10 16 N/A
12:15 pm 12:15 Sunny 77 25.1 44 6.8 31 31 SSW 10 17 30.15 1021 10 16 N/A
12:35 pm 12:35 Sunny 77 25.1 45 7.3 32 32 SSW 13 20 30.15 1021 10 16 N/A
12:55 pm 12:55 Sunny 77 25.1 45 7.1 32 32 S 9 15 30.15 1021 10 16 N/A
1:15 pm 13:15 Sunny 77 25.1 45 7.2 32 32 SSW 6 9 30.12 1020 10 16 N/A
1:35 pm 13:35 Sunny 78 25.6 46 7.5 32 32 SW 13 20 30.12 1020 10 16 N/A
1:55 pm 13:55 Sunny 80 26.5 44 6.8 29 29 SW 8 13 30.12 1020 10 16 N/A
2:15 pm 14:15 Sunny 80 26.5 44 6.7 28 28 SW 10 17 30.12 1020 10 16 N/A
2:35 pm 14:35 Sunny 80 26.5 43 6.2 27 27 SW 13 20 30.09 1019 10 16 N/A
2:55 pm 14:55 Sunny 80 26.5 43 6.3 28 28 S 10 17 30.09 1019 10 16 N/A
3:15 pm 15:15 Sunny 80 26.8 44 6.6 28 28 SSW 9 15 30.09 1019 10 16 N/A
3:35 pm 15:35 Sunny 81 27.2 44 6.9 28 28 SW 9 15 30.06 1018 10 16 N/A
3:55 pm 15:55 Sunny 80 26.5 45 7.2 29 29 SW 10 17 N/A 10 16 N/A
4:15 pm 16:15 Sunny 82 27.7 44 6.4 26 26 SW 13 20 30.06 1018 10 16 N/A
4:35 pm 16:35 Sunny 81 27.2 40 4.7 24 24 SW 10 17 30.06 1018 10 16 N/A
4:55 pm 16:55 Sunny 82 27.9 42 5.8 25 25 SW 9 15 30.03 1017 10 16 N/A
5:15 pm 17:15 Sunny 80 26.6 42 5.8 26 26 SSW 10 17 30.03 1017 10 16 N/A
5:35 pm 17:35 Sunny 82 27.6 44 6.6 26 26 SSW 14 22 30.03 1017 10 16 N/A
5:55 pm 17:55 Sunny 81 27.1 43 6 26 26 S 10 17 30.03 1017 10 16 N/A
6:15 pm 18:15 Sunny 81 27.4 42 5.7 25 25 S 10 17 30.00 1016 10 16 N/A
6:35 pm 18:35 Sunny 81 27.2 43 6 26 26 SSW 15 24 30.00 1016 10 16 N/A
6:55 pm 18:55 Sunny 80 26.7 43 6 27 27 S 10 17 30.00 1016 10 16 N/A
7:15 pm 19:15 Sunny 80 26.5 42 5.3 26 26 S 10 17 30.00 1016 10 16 N/A
7:35 pm 19:35 Sunny 80 26.5 42 5.5 26 26 S 12 19 30.00 1016 10 16 N/A
7:55 pm 19:55 Sunny 80 26.5 44 6.5 28 28 S 12 19 30.00 1016 10 16 N/A
8:15 pm 20:15 Sunny 80 26.5 46 7.5 30 30 S 13 20 30.00 1016 10 16 N/A
8:35 pm 20:35 Sunny 77 25.1 46 7.7 33 33 S 13 20 30.00 1016 10 16 N/A
8:55 pm 20:55 Sunny 77 25.1 47 8.4 35 35 S 10 17 29.97 1015 10 16 N/A
9:15 pm 21:15 Clear 74 23.6 48 9.1 40 40 S 7 11 29.97 1015 10 16 N/A
9:35 pm 21:35 Clear 74 23.6 49 9.7 41 41 SSW 6 9 29.97 1015 10 16 N/A
9:55 pm 21:55 Clear 74 23.5 52 11.3 46 46 N N/A 30.00 1016 10 16 N/A
10:15 pm 22:15 Clear 69 20.8 53 11.6 56 56 N N/A 30.00 1016 10 16 N/A
10:35 pm 22:35 Clear 69 20.8 56 13.5 63 63 WSW 3 6 30.00 1016 10 16 N/A
10:55 pm 22:55 Clear 69 20.8 56 13.3 62 62 WSW 5 7 30.00 1016 10 16 N/A
11:15 pm 23:15 Clear 65 18.5 55 12.6 69 69 N N/A 30.00 1016 10 16 N/A
11:35 pm 23:35 Clear 63 17.3 55 13 76 76 W 3 6 30.00 1016 10 16 N/A
11:55 pm 23:55 Clear 62 16.6 54 12.2 75 75 N N/A 30.00 1016 10 16 N/A

Powered by AerisWeather